Content
SEND FEEDBACK

Daily
Averages
Monthly
Summary
Canada

STRATFORD, ONTARIO


Home > North America > Canada > Ontario
Elevation: 1161 feet     Latitude: 43 24N     Longitude: 081 00W

WEATHER
 
SELECT A DAY
Number of Records: 191,133;   Date Range: 1/1/95 - 7/30/14
 
SHARE

PRINT THIS DATA

[ ← Previous Day ]
WEATHER ALMANAC - APRIL 10, 2013
[ Next Day → ]
[ °C ]   °F
Weather ElementAverageHighLow
Temperature42.8 °F46.4 °F (1:00 am) (9:42 am)
Dewpoint41.3 °F46.4 °F (1:00 am) (7:00 pm)
Humidity94 %100 % (1:00 am)80 % (8:00 pm)
Barometer29.49 in30.06 in (8:37 am) (7:00 pm)
Wind Speed11.3 mph19.6 mph (12:00 pm)
Wind Gust27.6 mph (3:00 pm)
Weather ElementAverage
Visibility6.9 mi
Wind DirectionENE (67.3 °)

Weather ElementTotal
Precipitation---
Heating Degree Days41.8 (Base 65)
Averaged from 62 records on April 10, 2013
WEATHER CONDITIONS BREAKOUT
WIND DIRECTION BREAKOUT
WEATHER BY HOUR - APRIL 10, 2013
[ °C ]   °F
Local TimeTemperatureDewpointHumidityBarometerVisibilityWind DirectionWind SpeedGust SpeedPrecipitationEventsConditions
1:00 AM46.4 °F46.4 °F100 %29.98 in4.0 miNE (50°)8.1 mphRainLight Rain Showers
1:16 AM46.4 °F44.6 °F93 %29.99 in5.0 miNE (50°)11.5 mphRainLight Rain Showers
2:00 AM46.0 °F45.0 °F94 %29.98 in6.0 miENE (60°)6.9 mphOvercast
2:00 AM46.4 °F44.6 °F93 %29.98 in6.0 miENE (70°)9.2 mphRainLight Rain Showers
2:46 AM44.6 °F44.6 °F100 %29.98 in6.0 miENE (70°)8.1 mphRainLight Rain Showers
3:00 AM44.6 °F44.6 °F100 %29.98 in6.0 miEast (80°)6.9 mphRainLight Rain Showers
3:41 AM44.6 °F44.6 °F100 %29.98 in5.0 miESE (120°)5.8 mphRainLight Rain Showers
4:00 AM44.6 °F42.8 °F93 %29.96 in4.0 miEast (100°)10.4 mphRainLight Rain Showers
4:39 AM44.6 °F42.8 °F93 %29.98 in6.0 miEast (80°)6.9 mphOvercast
5:00 AM44.6 °F42.8 °F93 %29.97 in6.0 miEast (80°)6.9 mphOvercast
5:38 AM44.6 °F42.8 °F93 %29.96 in6.0 miENE (60°)6.9 mphOvercast
5:52 AM44.6 °F42.8 °F93 %29.97 in6.0 miENE (70°)10.4 mphOvercast
6:00 AM44.6 °F42.8 °F93 %29.98 in6.0 miENE (70°)8.1 mphOvercast
6:23 AM44.6 °F42.8 °F93 %29.96 in6.0 miEast (80°)9.2 mphRainLight Rain Showers
6:34 AM44.6 °F42.8 °F93 %29.96 in6.0 miENE (70°)8.1 mphOvercast
6:50 AM42.8 °F42.8 °F100 %29.96 in3.0 miEast (80°)12.7 mphOvercast
7:00 AM42.8 °F42.8 °F100 %29.98 in2.5 miENE (70°)8.1 mph17.3 mphOvercast
7:50 AM42.8 °F42.8 °F100 %30.00 in1.5 miNorth (10°)11.5 mph17.3 mphRainLight Rain Showers
8:00 AM42.0 °F42.0 °F99 %30.01 in1.0 miNNE (30°)12.7 mphOvercast
8:00 AM42.8 °F42.8 °F100 %30.01 in1.5 miNE (40°)11.5 mph21.9 mphRainLight Rain Showers
8:17 AM42.8 °F41.0 °F93 %30.00 in2.5 miNE (40°)12.7 mph18.4 mphRainLight Rain Showers
8:30 AM42.8 °F41.0 °F93 %29.99 in2.5 miENE (60°)12.7 mph19.6 mphRainRain Showers
8:34 AM42.8 °F41.0 °F93 %30.02 in2.5 miESE (120°)4.6 mphRain-ThunderstormLight Thunderstorms and Rain
8:37 AM42.8 °F41.0 °F93 %30.06 in1.5 miSouth (190°)5.8 mphRain-ThunderstormHeavy Thunderstorms and Rain
8:43 AM42.8 °F41.0 °F93 %30.04 in2.0 miNE (50°)9.2 mphRain-ThunderstormThunderstorms and Rain
8:52 AM42.8 °F41.0 °F93 %30.02 in2.5 miNE (50°)11.5 mph20.7 mphRain-ThunderstormLight Thunderstorms and Rain
9:00 AM42.8 °F41.0 °F93 %30.02 in5.0 miENE (70°)11.5 mph17.3 mphRainLight Rain Showers
9:05 AM42.8 °F41.0 °F93 %30.00 in7.0 miEast (80°)15.0 mphRainLight Rain Showers
9:13 AM42.8 °F41.0 °F93 %30.00 in10.0 miENE (70°)11.5 mph17.3 mphRainLight Rain Showers
9:41 AM42.8 °F41.0 °F93 %29.98 in3.0 miEast (80°)16.1 mphRainLight Rain Showers
9:42 AM0.0 °F0.0 °F2.5 miEast (90°)16.1 mphRain-ThunderstormLight Thunderstorms and Rain
9:55 AM42.8 °F41.0 °F93 %30.01 in8.0 miNorth (10°)11.5 mph21.9 mphRain-ThunderstormLight Thunderstorms and Rain
9:59 AM42.8 °F41.0 °F93 %30.02 in7.0 miNNE (30°)9.2 mphRainLight Rain Showers
10:00 AM42.8 °F41.0 °F93 %30.02 in8.0 miNNE (20°)8.1 mphRainLight Rain Showers
10:12 AM42.8 °F41.0 °F93 %30.00 in2.5 miNE (50°)12.7 mphRainLight Rain Showers
10:27 AM42.8 °F41.0 °F93 %29.98 in5.0 miENE (70°)15.0 mph21.9 mphRainLight Rain Showers
10:42 AM42.8 °F41.0 °F93 %29.96 in10.0 miENE (70°)18.4 mphOvercast
11:00 AM42.8 °F41.0 °F93 %29.96 in12.0 miEast (80°)17.3 mphOvercast
11:13 AM44.6 °F42.8 °F93 %29.94 in12.0 miEast (80°)18.4 mph24.2 mphOvercast
12:00 PM44.6 °F42.8 °F93 %29.94 in10.0 miEast (80°)19.6 mphOvercast
12:23 PM44.6 °F42.8 °F93 %29.92 in10.0 miEast (90°)17.3 mphRainLight Rain Showers
1:00 PM44.6 °F42.8 °F93 %29.91 in8.0 miEast (90°)16.1 mphRainLight Rain Showers
1:35 PM42.8 °F42.8 °F100 %29.96 in3.0 miNE (50°)5.8 mphRain-ThunderstormLight Thunderstorms and Rain
1:37 PM42.8 °F42.8 °F100 %29.96 in2.0 miENE (60°)9.2 mphRain-ThunderstormHeavy Thunderstorms and Rain
1:48 PM42.8 °F42.8 °F100 %30.01 in2.0 miNorth (350°)8.1 mph17.3 mphRain-ThunderstormThunderstorms and Rain
2:00 PM43.0 °F42.0 °F96 %30.00 in10.0 miNorth (10°)9.2 mphOvercast
2:00 PM42.8 °F42.8 °F100 %30.00 in2.2 miNorth (10°)10.4 mphRain-ThunderstormThunderstorms and Rain
2:06 PM42.8 °F42.8 °F100 %30.00 in3.0 miNorth (10°)6.9 mphRain-ThunderstormThunderstorms and Rain
2:23 PM42.8 °F41.0 °F93 %29.96 in7.0 miENE (60°)11.5 mphRainRain Showers
2:33 PM42.8 °F41.0 °F93 %29.90 in8.0 miNE (50°)16.1 mphRainLight Rain Showers
3:00 PM44.6 °F42.8 °F93 %29.87 in10.0 miEast (80°)17.3 mph27.6 mphRainLight Rain Showers
3:11 PM44.6 °F42.8 °F93 %29.89 in10.0 miENE (70°)15.0 mph26.5 mphOvercast
4:00 PM44.6 °F41.0 °F87 %29.91 in15.0 miENE (60°)16.1 mphMostly Cloudy
5:00 PM44.6 °F41.0 °F87 %29.96 in12.0 miNNE (30°)9.2 mphOvercast
6:00 PM42.8 °F41.0 °F93 %29.96 in12.0 miNE (40°)15.0 mphOvercast
7:00 PM42.8 °F41.0 °F93 %29.96 in15.0 miNE (50°)11.5 mphOvercast
7:23 PM42.8 °F41.0 °F93 %29.95 in15.0 miNE (40°)13.8 mph19.6 mphOvercast
8:00 PM43.0 °F39.0 °F80 %29.99 in15.0 miNE (50°)10.4 mph
8:00 PM42.8 °F39.2 °F87 %29.98 in15.0 miENE (60°)10.4 mphMostly Cloudy
9:00 PM41.0 °F39.2 °F93 %29.98 in15.0 miENE (60°)8.1 mphMostly Cloudy
10:00 PM41.0 °F37.4 °F87 %30.01 in15.0 miENE (60°)12.7 mphOvercast
11:00 PM41.0 °F37.4 °F87 %30.00 in15.0 miENE (60°)12.7 mph19.6 mphOvercast
Hourly data recorded from CYXU, located miles away from Stratford, Ontario







STORIES FROM OUR PARTNERS